Time,TemperatureF,DewpointF,PressureIn,WindDirection,WindDirectionDegrees,WindSpeedMPH,WindSpeedGustMPH,Humidity,HourlyPrecipIn,Conditions,Clouds,dailyrainin,SolarRadiationWatts/m^2,SoftwareType,DateUTC
2013-04-08 00:15:00,48.1,24.9,29.90,SE,127,0.0,2.0,40,0.00,CLR,SKC,0.00,0.0,WeatherDisplay:10.37,2013-04-08 06:15:00,
2013-04-08 00:45:00,49.2,24.6,29.89,ESE,113,6.0,8.0,38,0.00,CLR,SKC,0.00,0.0,WeatherDisplay:10.37,2013-04-08 06:45:00,
2013-04-08 01:15:00,50.3,23.0,29.88,SE,135,2.0,3.0,34,0.00,CLR,SKC,0.00,0.0,WeatherDisplay:10.37,2013-04-08 07:15:00,
2013-04-08 01:45:00,50.9,21.3,29.87,SSW,197,1.0,5.0,31,0.00,CLR,SKC,0.00,0.0,WeatherDisplay:10.37,2013-04-08 07:45:00,
2013-04-08 02:15:00,52.2,26.7,29.86,SSW,199,5.0,7.0,37,0.00,CLR,SKC,0.00,0.0,WeatherDisplay:10.37,2013-04-08 08:15:00,
2013-04-08 02:45:00,50.5,27.7,29.80,ESE,107,8.0,12.0,41,0.00,CLR,SKC,0.00,0.0,WeatherDisplay:10.37,2013-04-08 08:45:00,
2013-04-08 03:16:00,53.0,26.1,29.76,South,183,5.0,15.0,35,0.00,CLR,SKC,0.00,0.0,WeatherDisplay:10.37,2013-04-08 09:16:00,
2013-04-08 03:45:00,53.5,25.1,29.74,SW,228,6.0,12.0,33,0.00,CLR,SKC,0.00,0.0,WeatherDisplay:10.37,2013-04-08 09:45:00,
2013-04-08 04:15:00,52.1,25.3,29.71,SSW,209,0.0,6.0,35,0.00,CLR,SKC,0.00,0.0,WeatherDisplay:10.37,2013-04-08 10:15:00,
2013-04-08 04:45:00,49.9,27.7,29.70,NNE,20,2.0,5.0,42,0.00,CLR,SKC,0.00,0.0,WeatherDisplay:10.37,2013-04-08 10:45:00,
2013-04-08 05:15:00,49.1,29.7,29.67,NE,50,6.0,9.0,47,0.00,CLR,SKC,0.00,0.0,WeatherDisplay:10.37,2013-04-08 11:15:00,
2013-04-08 05:45:00,48.3,30.0,29.64,ENE,69,6.0,10.0,49,0.00,CLR,SKC,0.00,0.0,WeatherDisplay:10.37,2013-04-08 11:45:00,
2013-04-08 06:15:00,47.1,29.9,29.61,ENE,58,1.0,3.0,51,0.00,CLR,SKC,0.00,0.0,WeatherDisplay:10.37,2013-04-08 12:15:00,
2013-04-08 06:45:00,46.0,32.0,29.61,NNE,22,6.0,12.0,58,0.00,OVC,SKC,0.00,0.0,WeatherDisplay:10.37,2013-04-08 12:45:00,
2013-04-08 07:15:00,43.1,33.3,29.61,ENE,69,6.0,8.0,68,0.00,OVC,SKC,0.00,5.0,WeatherDisplay:10.37,2013-04-08 13:15:00,
2013-04-08 07:45:00,43.0,33.9,29.60,NE,41,6.0,12.0,70,0.00,CLR,SKC,0.00,25.0,WeatherDisplay:10.37,2013-04-08 13:45:00,
2013-04-08 08:15:00,42.6,34.2,29.61,NE,55,3.0,8.0,72,0.00,SCT,SKC,0.00,42.0,WeatherDisplay:10.37,2013-04-08 14:15:00,
2013-04-08 08:45:00,43.2,34.8,29.60,NNE,30,7.0,10.0,72,0.00,FEW,SKC,0.00,135.0,WeatherDisplay:10.37,2013-04-08 14:45:00,
2013-04-08 09:15:00,45.1,35.1,29.59,ENE,72,6.0,13.0,68,0.00,FEW,SKC,0.00,271.0,WeatherDisplay:10.37,2013-04-08 15:15:00,
2013-04-08 09:45:00,46.8,35.3,29.58,NNE,31,6.0,9.0,64,0.00,SCT,SKC,0.00,253.0,WeatherDisplay:10.37,2013-04-08 15:45:00,
2013-04-08 10:16:00,49.1,35.8,29.56,North,10,5.0,8.0,60,0.00,FEW,SKC,0.00,353.0,WeatherDisplay:10.37,2013-04-08 16:16:00,
2013-04-08 10:45:00,51.1,35.0,29.55,North,4,5.0,10.0,54,0.00,CLR,SKC,0.00,670.0,WeatherDisplay:10.37,2013-04-08 16:45:00,
2013-04-08 11:15:00,51.4,32.9,29.54,NW,321,3.0,6.0,49,0.00,BKN,SKC,0.00,244.0,WeatherDisplay:10.37,2013-04-08 17:15:00,
2013-04-08 11:45:00,45.9,35.2,29.61,SSW,202,14.0,28.0,66,0.01,RA,SKC,0.01,9.0,WeatherDisplay:10.37,2013-04-08 17:45:00,
2013-04-08 12:15:00,44.9,38.1,29.58,SW,219,6.0,12.0,77,0.00,SCT,SKC,0.05,483.0,WeatherDisplay:10.37,2013-04-08 18:15:00,
2013-04-08 12:46:00,47.0,37.7,29.57,SW,225,6.0,14.0,70,0.00,SCT,SKC,0.05,485.0,WeatherDisplay:10.37,2013-04-08 18:46:00,
2013-04-08 13:15:00,47.0,35.9,29.58,West,266,8.0,12.0,65,0.00,BKN,SKC,0.05,373.0,WeatherDisplay:10.37,2013-04-08 19:15:00,
2013-04-08 13:45:00,47.3,36.2,29.57,WSW,237,1.0,5.0,65,0.00,BKN,SKC,0.05,371.0,WeatherDisplay:10.37,2013-04-08 19:45:00,
2013-04-08 14:16:00,46.7,35.6,29.56,SSW,195,1.0,6.0,65,0.00,BKN,SKC,0.05,211.0,WeatherDisplay:10.37,2013-04-08 20:16:00,
2013-04-08 14:45:00,47.5,34.7,29.56,West,280,0.0,2.0,61,0.00,BKN,SKC,0.05,188.0,WeatherDisplay:10.37,2013-04-08 20:45:00,
2013-04-08 15:16:00,46.9,34.6,29.55,West,267,2.0,3.0,62,0.00,BKN,SKC,0.05,121.0,WeatherDisplay:10.37,2013-04-08 21:16:00,
2013-04-08 15:45:00,44.8,37.3,29.55,North,0,13.0,20.0,75,0.01,RA,SKC,0.06,46.0,WeatherDisplay:10.37,2013-04-08 21:45:00,
2013-04-08 16:15:00,40.6,36.1,29.55,NE,56,7.0,13.0,84,0.00,BKN,SKC,0.10,56.0,WeatherDisplay:10.37,2013-04-08 22:15:00,
2013-04-08 16:45:00,40.7,36.6,29.57,NE,39,5.0,9.0,85,0.00,BKN,SKC,0.10,47.0,WeatherDisplay:10.37,2013-04-08 22:45:00,
2013-04-08 17:16:00,39.2,35.1,29.59,North,7,13.0,20.0,85,0.01,RA,SKC,0.11,33.0,WeatherDisplay:10.37,2013-04-08 23:16:00,
2013-04-08 17:45:00,38.3,34.8,29.61,NNE,26,7.0,13.0,87,0.00,RA,SKC,0.12,35.0,WeatherDisplay:10.37,2013-04-08 23:45:00,
2013-04-08 18:15:00,38.0,34.8,29.62,NNE,26,8.0,16.0,88,0.01,RA,SKC,0.15,26.0,WeatherDisplay:10.37,2013-04-09 00:15:00,
2013-04-08 18:45:00,38.7,34.8,29.63,ENE,62,2.0,10.0,86,0.00,BKN,SKC,0.15,30.0,WeatherDisplay:10.37,2013-04-09 00:45:00,
2013-04-08 19:16:00,39.2,35.1,29.65,ENE,60,1.0,5.0,85,0.00,RA,SKC,0.16,7.0,WeatherDisplay:10.37,2013-04-09 01:16:00,
2013-04-08 19:46:00,39.4,35.3,29.65,ENE,72,2.0,6.0,85,0.00,OVC,SKC,0.16,0.0,WeatherDisplay:10.37,2013-04-09 01:46:00,
2013-04-08 20:16:00,39.0,35.1,29.66,NE,42,1.0,4.0,86,0.00,CLR,SKC,0.16,0.0,WeatherDisplay:10.37,2013-04-09 02:16:00,
2013-04-08 20:46:00,38.6,35.4,29.67,ENE,59,0.0,1.0,88,0.00,CLR,SKC,0.16,0.0,WeatherDisplay:10.37,2013-04-09 02:46:00,
2013-04-08 21:16:00,37.8,34.8,29.69,WSW,243,0.0,3.0,89,0.00,CLR,SKC,0.16,0.0,WeatherDisplay:10.37,2013-04-09 03:16:00,
2013-04-08 21:46:00,37.6,34.1,29.71,NE,48,5.0,10.0,87,0.00,CLR,SKC,0.16,0.0,WeatherDisplay:10.37,2013-04-09 03:46:00,
2013-04-08 22:16:00,37.8,32.5,29.72,ENE,66,6.0,12.0,81,0.00,CLR,SKC,0.16,0.0,WeatherDisplay:10.37,2013-04-09 04:16:00,
2013-04-08 22:46:00,37.1,32.4,29.74,SSW,205,3.0,5.0,83,0.00,CLR,SKC,0.16,0.0,WeatherDisplay:10.37,2013-04-09 04:46:00,
2013-04-08 23:16:00,34.3,31.7,29.75,SSW,195,3.0,7.0,90,0.00,CLR,SKC,0.16,0.0,WeatherDisplay:10.37,2013-04-09 05:16:00,
2013-04-08 23:46:00,33.8,31.5,29.77,South,181,2.0,7.0,91,0.00,CLR,SKC,0.16,0.0,WeatherDisplay:10.37,2013-04-09 05:46:00,